Location: Bremen
(53.0793°N, 8.8017°E)
Time: 19:02:53
(UTC+01:00)

Vanguard 1 Rocket - Pass Details

Date: 05 December 2021
Orbit: 651 x 4224 km, 34.3° (Epoch: 24 January)

Event Time Altitude Azimuth Distance (km) Brightness Sun altitude
Rises 01:12:17 0° 191° (S) 4,280 - -57.4°
Reaches altitude 10° 01:16:10 10° 171° (S) 3,811 - -57.2°
Maximum altitude 01:22:05 17° 135° (SE) 4,027 - -56.8°
Exits shadow 01:26:14 15° 116° (ESE) 4,690 10.9 -56.4°
Drops below altitude 10° 01:30:13 10° 103° (ESE) 5,520 11.4 -56.1°
Sets 01:38:02 0° 88° (E) 7,305 12.3 -55.5°
